www.pogodaiklimat.ru

Погода и климат >> Архив погоды >> Мьянма >> Лойко


ПОГОДА в Лойко

  • Прогноз погоды в Лойко
  • Монитор погоды в Лойко

АРХИВ ПОГОДЫ в Лойко

Время (UTC), дата Ветер
(напр.,м/с)
 
Видим.   Явления Облачность Т
(С)
Тd
(С)
f
(%)
Тe
(С)
Тes
(С)
Комфортность P
(гПа)
Po
(гПа)
Тmin
(С)
Tmax
(С)
R
(мм)
R24
(мм)
S
(см)
06 12.06 ЮВ 1 8000 м слаб. морось 10/8 300 м
[Frnb Ac As]
+24.5 +23.3 93 +33 +34 очень
душно
1005.8 907.6
09 12.06 ЮВ 2 6000 м слаб. морось 10/8 300 м
[Frnb Ac As]
+26.5 +24.0 86 +37 +37 очень
душно
1002.2 904.9
12 12.06 штиль 0 6000 м {дождь, морось} 10/8 300 м
[Frnb Ac As]
+24.0 +22.6 92 +31 +31 очень
душно
1002.5 904.4 +27.0 11
00 13.06 ЮВ 1 6000 м 6/4 300 м
[Cu Sc Ac trans]
+22.0 +22.0 100 +29 +30 очень
душно
1006.4 907.3 +20.5
03 13.06 штиль 0 8000 м 9/6 300 м
[Frnb Ac As]
+24.0 +22.6 92 +31 +35 очень
душно
1005.9 907.5
06 13.06 ЮВ 1 8000 м {морось} 9/6 300 м
[Frnb Ac As]
+24.2 +22.6 91 +32 +37 очень
душно
1006.5 908.1
09 13.06 ЮВ 1 7000 м {морось} 9/6 300 м
[Cu Sc Ac As]
+24.5 +23.3 93 +33 +35 очень
душно
1004.1 906.0
12 13.06 ЮВ 1 6000 м 9/6 300 м
[Cu Sc Ac As]
+25.0 +23.3 90 +33 +33 очень
душно
1002.3 904.6 +25.5 1
00 14.06 ЮВ 1 6000 м {морось} 9/6 300 м
[Cu Sc Ac As]
+22.0 +22.0 100 +29 +29 очень
душно
1006.5 907.4 +20.5 1
03 14.06 штиль 0 7000 м 9/6 300 м
[Frnb Ac As]
+24.0 +22.6 92 +31 +35 очень
душно
1005.9 907.5
06 14.06 ЮЗ 1 7000 м 9/6 300 м
[Frnb Ac As]
+25.2 +21.9 82 +32 +37 очень
душно
1005.8 907.8
09 14.06 ЮЗ 1 7000 м {морось} 9/6 300 м
[Frnb Ac As]
+24.0 +22.6 92 +31 +34 очень
душно
1004.7 906.4
12 14.06 штиль 0 6000 м 6/4 300 м
[Cu Sc Cs]
+25.0 +21.9 83 +32 +32 очень
душно
1004.5 906.6 +26.2 4
00 15.06 ЮВ 1 6000 м 9/6 300 м
[Cu Sc Ac As]
+22.0 +20.5 91 +28 +28 душно 1006.7 907.6 +20.5
03 15.06 ЮВ 1 8000 м 6/4 300 м
[Cu Sc Ac cuf]
+24.0 +22.6 92 +31 +39 очень
душно
1008.0 909.4
06 15.06 штиль 0 8000 м 9/6 300 м
[Cu Sc Ac As]
+26.3 +22.9 82 +35 +41 очень
душно
1007.0 909.2
09 15.06 ЮЗ 1 8000 м {морось} 9/6 300 м
[Cu Sc Ac As]
+25.5 +24.6 95 +36 +38 очень
душно
1004.9 907.1
12 15.06 штиль 0 6000 м 9/6 300 м
[Frnb Ac As]
+26.0 +22.9 83 +35 +35 очень
душно
1002.9 905.4 +27.0 1
00 16.06 штиль 0 6000 м 9/6 300 м
[Cu Sc Ac As]
+22.5 +21.4 94 +30 +30 очень
душно
1006.4 907.5 +21.3
03 16.06 ЮВ 1 8000 м 9/6 300 м
[Cu Sc Ac As]
+24.0 +22.6 92 +31 +35 очень
душно
1006.9 908.4
06 16.06 ЮЗ 2 8000 м 9/6 600 м
[Cu Sc Ac As]
+27.0 +22.6 77 +36 +40 очень
душно
1005.6 908.2
09 16.06 ЮЗ 1 8000 м 8/6 600 м
[Cu Sc Ac cuf]
+29.0 +23.0 70 +39 +42 очень
душно
1002.6 906.1
12 16.06 ЮЗ 1 6000 м 8/6 300 м
[Cu Sc Ac As]
+27.0 +21.1 70 +34 +34 очень
душно
1002.7 905.6 +29.0
00 17.06 штиль 0 6000 м {дождь, морось} 9/6 300 м
[Cu Sc Ac As]
+22.5 +22.5 100 +30 +31 очень
душно
1006.3 907.4 +21.0 6
03 17.06 ЮВ 1 7000 м слаб. морось 10/8 300 м
[Frnb Ac As]
+25.0 +23.3 90 +33 +34 очень
душно
1005.6 907.6
06 17.06 штиль 0 8000 м слаб. морось 10/8 300 м
[Frnb Ac As]
+25.0 +25.0 100 +36 +37 очень
душно
1004.5 906.6
09 17.06 ЮВ 1 8000 м {дождь, морось} 8/5 600 м
[Cu Sc Ac cuf]
+25.5 +24.6 95 +36 +39 очень
душно
1003.9 906.2
12 17.06 ЮВ 1 6000 м 9/6 300 м
[Frnb Ac As]
+25.2 +23.3 89 +34 +34 очень
душно
1002.2 904.5 +27.5 23
00 18.06 ЮВ 1 6000 м {морось} 9/6 300 м
[Frnb Ac As]
+22.0 +22.0 100 +29 +29 очень
душно
1005.3 906.3 +20.5 4
03 18.06 ЮВ 1 7000 м 9/6 300 м
[Frnb Ac As]
+23.5 +22.6 95 +31 +34 очень
душно
1005.8 907.3
06 18.06 ЮВ 2 8000 м 8/5 300 м
[Cu Sc Ac cuf]
+27.0 +22.6 77 +36 +42 очень
душно
1003.7 906.5
09 18.06 ЮВ 1 8000 м 8/5 300 м
[Cu Sc Ac cuf]
+29.0 +23.0 70 +39 +42 очень
душно
1000.2 903.9
12 18.06 ЮВ 1 6000 м 9/6 300 м
[Cu Sc Ac As]
+27.0 +22.6 77 +36 +36 очень
душно
1001.9 904.8 +28.5
00 19.06 штиль 0 6000 м 9/6 300 м
[Cu Sc Ac As]
+22.0 +20.5 91 +28 +28 душно 1007.6 908.4 +21.0
03 19.06 ЮВ 1 7000 м 9/6 300 м
[Frnb Ac As]
+24.0 +22.6 92 +31 +35 очень
душно
1007.2 908.7

 

Местоположение метеостанции Лойко (Мьянма): широта 19.68 долгота 97.22 высота над уровнем моря 895 м.

В архиве по умолчанию представлена погода в Лойко за последнюю неделю. Архивные данные за месяц целиком и за предыдущие месяцы, начиная с января 2011 года, Вы можете получить, выбрав интересующий диапазон дат из раскрывающегося списка и нажав кнопку "Ввод!".


*Определитесь, кто Вы:
робот инопланетянин человек

Внимание! Время в таблицах - всемирное. Для получения местного времени необходимо прибавить поправку, которая равна 6.5 ч.

Смотрите также архив погоды в соседних городах и на ближайших метеорологических станциях:

Погода в Мае Хонг Сон (Таиланд) (77 км)
Погода в Пьинмане (Мьянма) (105 км)
Погода в Таунгу (Мьянма) (116 км)
Погода в Таунджи (Мьянма) (124 км)
Погода в Намсаме (Мьянма) (145 км)
Погода в Мэй Сарьян (Таиланд) (184 км)
Погода на Дои Эн Ханг (Таиланд) (191 км)
Погода в Мейтхиле (Мьянма) (193 км)
Погода в Чиангмае (Таиланд) (210 км)
Погода в Лампхуне (Таиланд) (227 км)

Пояснения к столбцам:

Ветер - указаны скорость ветра в м/с - средняя за 10 мин, порывы в срок и между сроками (в фигурных скобках) и направление, откуда дует ветер: С - северный, СВ - северо-восточный, В - восточный, ЮВ - юго-восточный, Ю - южный, ЮЗ - юго-западный, З - западный, СЗ - северо-западный.
Видимость - горизонтальная дальность видимости в метрах или километрах. При видимости от 1 до 10 км при отсутствии осадков обычно наблюдается дымка, при ухудшении видимости до 1 км и менее - туман. В сухую погоду видимость может ухудшаться дымом, пылью или мглою.
Явления - указаны атмосферные явления, наблюдавшиеся в срок или в последний час перед сроком; фигурными скобками обозначены явления, наблюдавшиеся между сроками (за 1-3 часа до срока); квадратными скобками обозначены град или гололедные отложения с указанием их диаметра в мм.
Облачность - указаны через наклонную черту общая и нижняя облачность в баллах и высота нижней границы облаков в метрах; квадратными скобками обозначены формы облаков: Ci - перистые, Cs - перисто-слоистые, Cc - перисто-кучевые, Ac - высококучевые, As - высокослоистые, Sc - слоисто-кучевые, Ns - слоисто-дождевые, Cu - кучевые, Cb - кучево-дождевые. Подробнее классификацию облаков см. в Атласе облаков (PDF).
T - Температура воздуха - температура, измеренная на высоте 2 м над землей.
Td - Температура точки росы - температура, при понижении до которой содержащийся в воздухе водяной пар достигнет насыщения.
f - Относительная влажность воздуха - влажноcть воздуха, измеренная на высоте 2 м над землей.
Te - Эффективная температура - температура, которую ощущает одетый по сезону человек в тени. Характеристика душности погоды. При расчете учитывается влияние влажности воздуха и скорости ветра на теплоощущения человека.
Tes - Эффективная температура на солнце - температура, которую ощущает человек, с поправкой на солнечный нагрев. Характеристика знойности погоды. Зависит от высоты солнца над горизонтом, облачности и скорости ветра. Ночью, в пасмурную погоду, а также при ветре 12 м/с и более поправка равна нулю.
P - Атмосферное давление - приведенное к уровню моря атмосферное давление.
Po - Атмосферное давление - измеренное на уровне метеостанции атмосферное давление.
Tmin - Минимальная температура - минимум температуры воздуха на высоте 2 м над землей.
Tmax - Максимальная температура - максимум температуры воздуха на высоте 2 м над землей.
R - Количество осадков - Количество выпавших осадков за период времени, мм. При наведении курсора мыши на число - период времени, за который выпало указанное количество осадков.
R24 - Количество осадков - Количество выпавших осадков за 24 часа, мм.
S - Снежный покров - Высота снежного покрова, см. При наведении курсора мыши на число - состояние снежного покрова и степень покрытия местности в баллах.